Regional Weather Roundup
Issued by NWS Boston, MA

Home | Current Version | Previous Version | Text Only | Print | Product List | Glossary On
Versions: 1 2 3 4 5 6 7 8 9 10 11 12 13 14 15 16 17 18 19 20 21 22 23 24 25 26 27 28 29 30 31 32 33 34 35 36 37 38 39 40 41 42 43 44 45 46 47 48 49 50
209
ASUS41 KBOX 012210
RWRBOX

REGIONAL WEATHER ROUNDUP
NATIONAL WEATHER SERVICE TAUNTON MA
600 PM EDT SAT OCT 01 2016

NOTE:  "FAIR" INDICATES FEW OR NO CLOUDS BELOW 12,000 FEET WITH NO
SIGNIFICANT WEATHER AND/OR OBSTRUCTIONS TO VISIBILITY.

MAZALL-012300-
EASTERN MASSACHUSETTS

CITY           SKY/WX    TMP DP  RH WIND       PRES   REMARKS
BOSTON         FOG       55  55 100 N18       30.21F VSB 1
BEVERLY        LGT RAIN  54  54 100 NE14G22   30.22F FOG
LAWRENCE       LGT RAIN  54  53  97 NE15      30.26F FOG
BEDFORD        CLOUDY    54  52  93 N12       30.23S FOG
BLUE HILL        N/A     53  52  96 NE15G29   30.19F
NORWOOD        CLOUDY    56  54  93 N8        30.21F FOG
MARSHFIELD     LGT RAIN  59  59 100 NE13G22   30.18F VSB 3/4
PLYMOUTH       LGT RAIN  58  57  97 NE16G26   30.16F FOG
TAUNTON        CLOUDY    58  56  93 VRB6      30.17F FOG
NEW BEDFORD    CLOUDY    60  57  89 N9G21     30.14F FOG
$$

MAZALL-012300-
CAPE COD AND THE ISLANDS

CITY           SKY/WX    TMP DP  RH WIND       PRES   REMARKS
FALMOUTH       FOG       59  59 100 NE17G23   30.15S VSB 3/4
HYANNIS        LGT RAIN  60  59  96 N14G20    30.12F FOG
CHATHAM        LGT RAIN N/A N/A N/A NE9G20    30.13F VSB 1
PROVINCETOWN   LGT RAIN  59  59 100 NE16G24   30.17F FOG
NANTUCKET      FOG       62  61  96 N13       30.09F VSB 1/4
MARTHAS VNYRD  CLOUDY    61  59  93 NE16G24   30.11F
$$

MAZALL-012300-
CENTRAL AND WESTERN MASSACHUSETTS

CITY           SKY/WX    TMP DP  RH WIND       PRES   REMARKS
WORCESTER      LGT RAIN  50  48  93 NE15      30.21F VSB 1
FITCHBURG      CLOUDY    53  49  86 N9        30.26F FOG
ORANGE         CLOUDY    52  50  93 NE10      30.24F
SPRINGFIELD    CLOUDY    55  50  85 NE9       30.21F
WESTFIELD      CLOUDY    54  53  97 N9        30.22F
NORTH ADAMS    CLOUDY    56  48  74 E14       30.21F
PITTSFIELD     CLOUDY    53  48  83 NE10G17   30.20F
$$

RIZALL-012300-
RHODE ISLAND

CITY           SKY/WX    TMP DP  RH WIND       PRES   REMARKS
PROVIDENCE     DRIZZLE   57  54  89 N17G24    30.18S FOG
NEWPORT        CLOUDY    59  57  93 N15       30.15S
BLOCK ISLAND   CLOUDY    61  58  90 N16G22    30.14F
SMITHFIELD     CLOUDY    55  54  96 NE12      30.20S
WESTERLY       CLOUDY    61  55  81 N10       30.15F
$$

CTZALL-012300-
CONNECTICUT

CITY           SKY/WX    TMP DP  RH WIND       PRES   REMARKS
BRADLEY INTL   CLOUDY    55  51  86 N10       30.21F
HARTFORD       CLOUDY    56  54  93 N10       30.20S
BRIDGEPORT     CLOUDY    60  54  80 N12       30.16F
DANBURY        CLOUDY    56  53  90 NE12G18   30.18F
GROTON         CLOUDY    63  57  81 N9        30.14F
NEW HAVEN      CLOUDY    58  54  86 N13       30.16F
CHESTER        CLOUDY    57  55  94 NE9       30.17R
MERIDEN        CLOUDY    58  53  84 N8G16     30.18F
WILLIMANTIC    CLOUDY    57  54  89 NE12      30.19F
OXFORD         CLOUDY    54  50  87 NE12G18   30.18F FOG
$$

MEZ002-015-021-024-NHZ003-005-008-011-012-014-VTZ005-008-012300-
NORTHERN NEW ENGLAND

CITY           SKY/WX    TMP DP  RH WIND       PRES   REMARKS
PORTLAND ME    DRIZZLE   57  47  69 NE7       30.29S
BANGOR ME      CLOUDY    61  47  59 NE5       30.30F
CONCORD NH     CLOUDY    53  49  86 NE5       30.29S FOG
MANCHESTER NH  LGT RAIN  53  50  89 N9        30.25F
NASHUA NH      LGT RAIN  52  51  97 VRB6      30.27F FOG
PORTSMOUTH NH  DRIZZLE   54  53  94 N5        30.26S FOG
JAFFREY NH     CLOUDY    49  47  93 VRB5      30.27S FOG
KEENE NH       CLOUDY    53  48  83 NE6       30.26F
BURLINGTON VT  CLOUDY    57  47  69 SE9       30.24F
MT. WASHINGTON DRZL/FOG  45  45 100 SE9         N/A  VSB 1/8
$$

NYZ052-076-012300-
EASTERN NEW YORK

CITY           SKY/WX    TMP DP  RH WIND       PRES   REMARKS
ALBANY         CLOUDY    59  53  80 SW5       30.20F
NEW YORK CITY  CLOUDY    63  58  83 NE12      30.15S
$$

ANZALL-012300-
MARINE OBSERVATIONS

STATION/POSITION TIME  TEMP    WIND        PRES    VSBY  WAVE
                       AIR SEA DIR/SP/G                  HT/PER
                 (UTC) (F)     (DEG/KT/KT) (MB)    (MI)  (FT/S)
BOSTON BUOY      2150   58 61   30/ 21/ 27 1022.2F         7/ 8
BUZZARDS BAY     2200   60      20/ 23/ 25 1020.4F
NANTUCKET SOUND  2150   61 60   10/ 16/ 19 1019.1F         2/ 3
MASS BAY-STELLWA 2104   57 60   30/ 21/ 25 1023.1S  1 1/8  8/ 8
ISLE OF SHOALS   2200   55      40/ 26/ 28 1023.4F
S OF BLOCK IS    2125      63                N/A           6/ 7
$$

......................KEY.........................
  SKY/WX - SKY CONDITION/PRESENT WEATHER
  TMP    - TEMPERATURE IN FAHRENHEIT
  DWPT   - DEWPOINT IN FAHRENHEIT
  RH     - RELATIVE HUMIDITY IN PERCENT
  WIND   - DIRECTION AND SPEED IN MPH
  PRES   - MEAN SEA LEVEL PRESSURE IN INCHES OF HG
  WCI    - WIND CHILL INDEX
  VSB    - VISIBILITY IN MILES
  HX     - HEAT INDEX
  TC     - TEMPERATURE IN CELSIUS
  VRB    - VARIABLE WIND DIRECTION
  N/A    - NOT AVAILABLE




USA.gov is the U.S. government's official web portal to all federal, state and local government web resources and services.